[[{"header":{"parameterUnit":"m.s-1","parameterCategory":1,"la1":30.2991,"la2":30.254,"lo1":-89.0895,"lo2":-89.0444,"dy":0.0017,"dx":0.0017,"nx":28,"ny":28,"refTime":"2024-02-03T09:00:00:Z","depth":0,"parameterNumber":2,"parameterNumberName":"U-component_of_WINDS"},"data":[0,0,0,0,0,0,0,0,0,0,0,0,0,0,0,0,0,0,0,0,0,0,0,0,0,0,0,0,0,0,0,0,0,0,0,0,0,0,0,0,0,0,0,0,0,0,0,0,0,0,0,0,0,0,0,0,0,0,-11.2081,-11.2083,0,-11.224,-11.2242,-11.2244,-11.2179,-11.2176,-11.2172,-11.2168,-11.2324,-11.2332,-11.2339,0,0,0,0,0,0,0,0,0,0,0,0,0,-11.1718,-11.1725,-11.2081,-11.2083,-11.2085,-11.224,-11.2242,-11.2244,-11.218,-11.2176,-11.2171,-11.2167,-11.2322,-11.2331,-11.234,0,0,0,0,0,0,0,0,0,0,0,0,0,-11.1876,-11.1727,-11.2081,-11.2072,-11.2073,-11.2239,-11.2242,-11.2245,-11.2181,-11.2175,-11.217,-11.2165,-11.2319,-11.233,-11.2341,-11.2523,0,0,-11.2376,-11.2381,0,0,0,0,0,0,0,0,-11.1867,-11.1889,-11.2071,-11.2073,-11.2074,-11.2184,-11.2171,-11.2338,-11.2182,-11.214,-11.2168,-11.2162,-11.2282,-11.2296,-11.2338,-11.2531,-11.2537,-11.2377,-11.2384,-11.2389,-11.2392,0,0,0,0,0,0,0,-11.1856,-11.1882,-11.2144,-11.2074,-11.2076,-11.2059,-11.2075,-11.2202,-11.224,-11.2143,-11.2139,-11.2159,-11.2281,-11.2327,-11.2341,-11.254,-11.2377,-11.2387,-11.2394,-11.2398,-11.2892,-11.2898,0,0,0,0,0,0,-11.1846,-11.1874,-11.2139,-11.2148,-11.1955,-11.207,-11.2088,-11.2154,-11.2238,-11.2246,-11.2163,-11.2155,-11.231,-11.2328,-11.2346,-11.2564,-11.2389,-11.2399,-11.2406,-11.2886,-11.2893,-11.29,0,0,0,0,0,0,-11.1838,-11.187,-11.2132,-11.201,-11.2042,-11.2082,-11.2157,-11.2161,-11.2206,-11.2254,-11.226,-11.2203,-11.2306,-11.233,-11.2481,-11.2569,-11.2405,-11.2415,-11.2879,-11.2888,-11.2897,-11.3003,0,0,0,0,0,0,-11.1828,-11.1868,-11.1938,-11.2012,-11.2049,-11.2265,-11.2163,-11.2168,-11.2227,-11.2217,-11.2293,-11.23,-11.2304,-11.2464,-11.2492,-11.2582,-11.2424,-11.2871,-11.2883,-11.2894,-11.2992,-11.3015,-11.3035,0,0,0,0,0,-11.1815,-11.196,-11.1942,-11.1974,-11.2138,-11.227,-11.2291,-11.2295,-11.2234,-11.2304,-11.2336,-11.2297,-11.2557,-11.248,-11.2511,-11.2605,-11.2865,-11.2879,-11.2893,-11.2982,-11.3011,-11.3035,0,0,0,0,0,0,-11.189,-11.1969,-11.195,-11.2123,-11.2191,-11.2259,-11.2347,-11.2325,-11.2409,-11.2396,-11.2396,-11.2414,-11.2569,-11.2603,-11.2517,-11.2788,-11.2701,-11.2722,-11.2758,-11.2786,-11.2807,-11.2793,-11.2433,0,0,0,0,0,-11.1928,-11.2031,-11.2094,-11.224,-11.2276,-11.2307,-11.2364,-11.2362,-11.2431,-11.2459,-11.2501,-11.2568,-11.2665,-11.2728,-11.282,-11.2999,-11.3014,-11.308,-11.3101,-11.3119,-11.3135,-11.3233,-11.3262,-11.2947,-11.2946,-11.2946,0,0,-11.2004,-11.206,-11.2124,-11.2257,-11.2309,-11.2414,-11.233,-11.2445,-11.2522,-11.2475,-11.262,-11.2655,-11.273,-11.2896,-11.2971,-11.2929,-11.3227,-11.3137,-11.315,-11.3157,-11.325,-11.328,-11.3306,-11.2956,-11.2954,-11.2953,0,0,-11.2196,-11.2251,-11.2379,-11.2435,-11.2517,-11.2538,-11.2569,-11.2643,-11.2664,-11.2811,-11.2779,-11.2871,-11.3038,-11.3093,-11.3142,-11.3364,-11.3331,-11.3394,-11.3504,-11.3599,-11.3624,-11.3646,-11.3722,-11.375,-11.3411,-11.3411,-11.3412,0,-11.228,-11.2439,-11.2446,-11.2565,-11.2624,-11.2592,-11.2721,-11.2774,-11.2881,-11.2922,-11.2875,-11.3085,-11.3133,-11.3312,-11.3366,-11.3409,-11.3443,-11.3382,-11.362,-11.3642,-11.3663,-11.3735,-11.3765,-11.3418,-11.3417,-11.3417,-11.3416,0,-11.2537,-11.2648,-11.2742,-11.2849,-11.292,-11.3043,-11.3068,-11.3138,-11.3132,-11.3158,-11.3308,-11.3367,-11.347,-11.3514,-11.3507,-11.3692,-11.3664,-11.3619,-11.3531,-11.3699,-11.3768,-11.3796,-11.3428,-11.3426,-11.3424,-11.3422,0,0,-11.2773,-11.2889,-11.2922,-11.2972,-11.3064,-11.3148,-11.3272,-11.3376,-11.3435,-11.3513,-11.3613,-11.3759,-11.3719,-11.3776,-11.3777,-11.3861,-11.4031,-11.3806,-11.3808,-11.3843,-11.4237,-11.4266,-11.4299,-11.4013,-11.4018,-11.4023,-11.423,0,-11.297,-11.3186,-11.32,-11.3395,-11.3498,-11.3472,-11.3579,-11.3647,-11.3676,-11.3766,-11.3798,-11.39,-11.3841,-11.3875,-11.3958,-11.3992,-11.4109,-11.3979,-11.4104,-11.4108,-11.4081,-11.4335,-11.4366,-11.4558,-11.4257,-11.4261,-11.4265,0,-11.3226,-11.3315,-11.3522,-11.3602,-11.3645,-11.3741,-11.3839,-11.3927,-11.4004,-11.4019,-11.4086,-11.4076,-11.4202,-11.4115,-11.4287,-11.4198,-11.4252,-11.4277,-11.4285,-11.4292,-11.4192,-11.4345,-11.4619,-11.4647,-11.4307,-11.4304,-11.4301,0,-11.3374,-11.3546,-11.3692,-11.3736,-11.3833,-11.3901,-11.3945,-11.4016,-11.4079,-11.4166,-11.4206,-11.4306,-11.4358,-11.4435,-11.4452,-11.4388,-11.4624,-11.4539,-11.4638,-11.4638,-11.4683,-11.4679,-11.4966,-11.4726,-11.4726,-11.4725,-11.4725,0,-11.359,-11.3716,-11.376,-11.3849,-11.3991,-11.4007,-11.4146,-11.4185,-11.425,-11.4346,-11.4331,-11.4421,-11.444,-11.4534,-11.4549,-11.4689,-11.4714,-11.4728,-11.4729,-11.4727,-11.4724,-11.4757,-11.4742,-11.4733,-11.4731,-11.473,-11.4728,0,-11.3775,-11.3811,-11.3968,-11.405,-11.4074,-11.4174,-11.4243,-11.4329,-11.436,-11.4481,-11.451,-11.4556,-11.4667,-11.4694,-11.4824,-11.4834,-11.4998,-11.4989,-11.4973,-11.497,-11.5067,-11.5056,-11.538,-11.5423,-11.516,-11.5162,-11.5164,0,-11.3908,-11.4005,-11.41,-11.4165,-11.4212,-11.4316,-11.4382,-11.4403,-11.4471,-11.4569,-11.4643,-11.4753,-11.484,-11.5018,-11.5062,-11.5162,-11.5153,-11.526,-11.5167,-11.5162,-11.515,-11.5142,-11.5151,-11.5275,-11.5278,-11.528,-11.5282,0,-11.4138,-11.4152,-11.4248,-11.4353,-11.4432,-11.4514,-11.4593,-11.4646,-11.4678,-11.4756,-11.4871,-11.494,-11.5076,-11.5184,-11.5286,-11.5329,-11.5311,-11.5313,-11.534,-11.5335,-11.532,-11.5327,-11.5016,-11.5303,-11.5301,-11.5299,-11.5298,-11.5297,-11.4299,-11.4385,-11.4466,-11.4574,-11.4637,-11.4712,-11.4797,-11.484,-11.4937,-11.505,-11.5058,-11.5181,-11.5259,-11.5395,-11.5445,-11.5542,-11.5509,-11.5549,-11.5559,-11.5567,-11.5574,-11.531,-11.5561,-11.5561,-11.556,-11.556,-11.5559,0,-11.4525,-11.4578,-11.4678,-11.4791,-11.4877,-11.4858,-11.4945,-11.5017,-11.5127,-11.5202,-11.5291,-11.5423,-11.553,-11.5586,-11.5691,-11.5758,-11.5752,-11.5784,-11.5777,-11.5787,-11.5599,-11.5563,-11.5787,-11.5787,-11.5787,-11.5787,-11.5787,-11.5787,-11.4653,-11.4797,-11.4822,-11.4998,-11.5049,-11.5172,-11.5224,-11.5293,-11.5353,-11.5503,-11.5592,-11.5629,-11.5697,-11.5808,-11.5905,-11.5919,-11.5957,-11.5993,-11.6002,-11.5824,-11.58,-11.5778,-11.5744,-11.6002,-11.6002,-11.6181,-11.6182,-11.6184]},{"header":{"parameterUnit":"m.s-1","parameterCategory":1,"la1":30.2991,"la2":30.254,"lo1":-89.0895,"lo2":-89.0444,"dy":0.0017,"dx":0.0017,"nx":28,"ny":28,"refTime":"2024-02-03T09:00:00:Z","depth":0,"parameterNumber":3,"parameterNumberName":"V-component_of_WINDS"},"data":[0,0,0,0,0,0,0,0,0,0,0,0,0,0,0,0,0,0,0,0,0,0,0,0,0,0,0,0,0,0,0,0,0,0,0,0,0,0,0,0,0,0,0,0,0,0,0,0,0,0,0,0,0,0,0,0,0,0,6.204,6.204,0,6.1987,6.1987,6.1986,6.188,6.1878,6.1876,6.1874,6.1817,6.1817,6.1818,0,0,0,0,0,0,0,0,0,0,0,0,0,6.205,6.205,6.204,6.204,6.2039,6.1987,6.1987,6.1986,6.188,6.1878,6.1875,6.1873,6.1817,6.1817,6.1818,0,0,0,0,0,0,0,0,0,0,0,0,0,6.2026,6.205,6.204,6.198,6.1974,6.1988,6.1987,6.1986,6.1881,6.1878,6.1874,6.1871,6.1817,6.1817,6.1818,6.1885,0,0,6.182,6.182,0,0,0,0,0,0,0,0,6.2028,6.2026,6.199,6.1984,6.1978,6.1937,6.1969,6.1952,6.1881,6.1916,6.1874,6.187,6.1859,6.1856,6.1853,6.1882,6.188,6.182,6.182,6.1821,6.1821,0,0,0,0,0,0,0,6.2029,6.2028,6.2019,6.1989,6.1982,6.1956,6.1949,6.1965,6.1906,6.1913,6.1905,6.19,6.1855,6.1853,6.1851,6.1879,6.182,6.1821,6.1821,6.1821,6.1964,6.1967,0,0,0,0,0,0,6.204,6.203,6.2021,6.2018,6.1996,6.1958,6.195,6.1953,6.1905,6.1895,6.1903,6.1896,6.1853,6.185,6.1849,6.1926,6.1821,6.1821,6.1822,6.1961,6.1965,6.1968,0,0,0,0,0,0,6.2041,6.204,6.2023,6.2022,6.2017,6.1961,6.1965,6.1954,6.1951,6.1898,6.1887,6.1911,6.1851,6.1848,6.1878,6.1922,6.1822,6.1822,6.1957,6.1962,6.1967,6.208,0,0,0,0,0,0,6.2041,6.2041,6.2066,6.2023,6.2018,6.2053,6.1968,6.1955,6.1953,6.1942,6.1903,6.1893,6.1848,6.1877,6.1878,6.1921,6.1823,6.1952,6.1959,6.1965,6.2072,6.2088,6.2102,0,0,0,0,0,6.2042,6.2099,6.2068,6.2067,6.2048,6.2056,6.2053,6.2,6.1957,6.1981,6.1948,6.1894,6.1918,6.1881,6.1882,6.1925,6.1949,6.1957,6.1965,6.2065,6.2085,6.2102,0,0,0,0,0,0,6.2146,6.2092,6.2057,6.2101,6.2084,6.2038,6.2067,6.2023,6.2017,6.2007,6.1942,6.1934,6.1973,6.1952,6.1913,6.1989,6.1925,6.1933,6.2001,6.202,6.2035,6.2038,6.1823,0,0,0,0,0,6.2175,6.2186,6.2138,6.2182,6.2175,6.2124,6.2125,6.2086,6.2066,6.2058,6.2026,6.2008,6.2011,6.2014,6.2014,6.2069,6.2059,6.2099,6.2115,6.2127,6.2135,6.2164,6.2182,6.1993,6.1993,6.1993,0,0,6.2233,6.2205,6.2215,6.2202,6.2184,6.2198,6.2118,6.2135,6.2145,6.206,6.2087,6.2064,6.2039,6.2083,6.21,6.2066,6.2185,6.2137,6.2147,6.2148,6.2174,6.2192,6.2208,6.1999,6.1998,6.1997,0,0,6.2346,6.2326,6.2361,6.2346,6.2321,6.2286,6.2296,6.2257,6.2239,6.2265,6.2203,6.2214,6.222,6.2206,6.2199,6.2312,6.2263,6.2314,6.2392,6.2422,6.2437,6.245,6.2491,6.2506,6.2322,6.2322,6.2322,0,6.2421,6.2439,6.2384,6.2407,6.2403,6.233,6.2365,6.2353,6.2329,6.2329,6.2292,6.2301,6.2279,6.2319,6.2347,6.2344,6.2353,6.2317,6.2439,6.2452,6.2463,6.2501,6.2517,6.2328,6.2328,6.2327,6.2326,0,6.2534,6.2548,6.2579,6.256,6.2561,6.259,6.2539,6.2546,6.2509,6.2479,6.2508,6.248,6.2474,6.2481,6.2444,6.2517,6.2497,6.2451,6.2385,6.2488,6.2523,6.2537,6.2338,6.2335,6.2333,6.2332,0,0,6.2708,6.2661,6.2673,6.2665,6.2634,6.2644,6.2671,6.2666,6.2674,6.2661,6.2682,6.2692,6.265,6.2643,6.2604,6.263,6.2723,6.258,6.2579,6.2608,6.2804,6.2839,6.2856,6.2691,6.2694,6.2696,6.2806,0,6.2814,6.2857,6.281,6.2863,6.2876,6.2808,6.2831,6.2816,6.2789,6.2797,6.2767,6.2776,6.2719,6.2715,6.2738,6.2707,6.2761,6.2698,6.271,6.2712,6.2718,6.2874,6.2911,6.3016,6.2819,6.2821,6.2823,0,6.2942,6.2938,6.2993,6.2961,6.2965,6.2987,6.298,6.2989,6.297,6.2949,6.2944,6.2898,6.2923,6.286,6.2894,6.2852,6.2855,6.2841,6.2844,6.2842,6.2773,6.2877,6.3048,6.3064,6.2844,6.2842,6.2841,0,6.3065,6.3073,6.3107,6.3102,6.3065,6.3083,6.3068,6.3047,6.3048,6.3043,6.3044,6.3041,6.304,6.3039,6.2995,6.2953,6.3035,6.2968,6.3018,6.302,6.3037,6.3037,6.3211,6.304,6.304,6.304,6.3039,0,6.3188,6.3224,6.3162,6.3183,6.3222,6.3169,6.3209,6.3188,6.317,6.3186,6.3128,6.3144,6.3084,6.3095,6.306,6.3094,6.3094,6.3078,6.3068,6.3083,6.3085,6.3083,6.3075,6.3044,6.3043,6.3042,6.3041,0,6.3331,6.329,6.3324,6.3288,6.328,6.3311,6.328,6.3298,6.327,6.3291,6.3293,6.3248,6.3257,6.3213,6.3215,6.3192,6.3244,6.3221,6.325,6.3243,6.3297,6.3293,6.3475,6.3497,6.3313,6.3315,6.3316,0,6.3412,6.3439,6.3407,6.3414,6.3403,6.3415,6.3417,6.3366,6.3371,6.3354,6.3375,6.338,6.3381,6.3401,6.3368,6.3369,6.3347,6.3411,6.3346,6.3362,6.3348,6.3347,6.335,6.3424,6.3426,6.3428,6.3429,0,6.356,6.354,6.3545,6.3545,6.3549,6.3546,6.3539,6.3548,6.3493,6.3502,6.3512,6.3513,6.3517,6.3523,6.3519,6.3504,6.3458,6.3451,6.3462,6.3477,6.3493,6.3486,6.3287,6.3446,6.3444,6.3443,6.3442,6.3442,6.3674,6.3696,6.3678,6.3687,6.3676,6.3672,6.3688,6.3663,6.3671,6.367,6.364,6.3656,6.3639,6.3629,6.3619,6.3632,6.3602,6.3619,6.3623,6.3628,6.3638,6.3493,6.3631,6.363,6.363,6.3629,6.3629,0,6.382,6.3806,6.3815,6.3808,6.3815,6.3774,6.3764,6.3773,6.3789,6.3778,6.3781,6.3794,6.3801,6.377,6.3773,6.3789,6.3769,6.3792,6.379,6.3788,6.3664,6.3654,6.3809,6.3809,6.3809,6.3808,6.3808,6.3808,6.3897,6.3932,6.391,6.394,6.3925,6.3942,6.394,6.3937,6.3927,6.3945,6.3951,6.3931,6.3913,6.3914,6.3919,6.391,6.3914,6.3944,6.3928,6.3813,6.3796,6.3779,6.3769,6.3946,6.3946,6.4051,6.4052,6.4052]}]]